This is the latest recevied weather packets stored in our database for station/object HG8PDN-11. If no packets are shown the sender has not sent any weather packets the latest 10 day(s).
| Time | Temp. | Humidity | Pressure | Rain* | Wind** | Luminosity | Snow |
|---|---|---|---|---|---|---|---|
| 1777227062 | 27.22° C | 13% | 1019.8 hPa | - | - | - | - |
| 1777227041 | 27.22° C | 13% | 1019.8 hPa | - | - | - | - |
| 1777226140 | 27.78° C | 13% | 1019.3 hPa | - | - | - | - |
| 1777225292 | 27.78° C | 12% | 1019 hPa | - | - | - | - |
| 1777225239 | 27.78° C | 12% | 1019 hPa | - | - | - | - |
| 1777224339 | 28.33° C | 12% | 1018.8 hPa | - | - | - | - |
| 1777223439 | 28.33° C | 12% | 1018.6 hPa | - | - | - | - |
| 1777222539 | 28.33° C | 12% | 1018.5 hPa | - | - | - | - |
| 1777221639 | 28.89° C | 12% | 1018.2 hPa | - | - | - | - |
| 1777220738 | 28.89° C | 11% | 1018.1 hPa | - | - | - | - |
| 1777219838 | 28.89° C | 10% | 1018.1 hPa | - | - | - | - |
| 1777218938 | 30° C | 11% | 1017.9 hPa | - | - | - | - |
| 1777218038 | 30° C | 11% | 1017.8 hPa | - | - | - | - |
| 1777217137 | 29.44° C | 11% | 1017.9 hPa | - | - | - | - |
| 1777216237 | 29.44° C | 11% | 1017.9 hPa | - | - | - | - |
| 1777215337 | 29.44° C | 11% | 1017.6 hPa | - | - | - | - |
| 1777214437 | 30° C | 11% | 1017.5 hPa | - | - | - | - |
| 1777213537 | 29.44° C | 11% | 1017.4 hPa | - | - | - | - |
| 1777212637 | 29.44° C | 11% | 1017.1 hPa | - | - | - | - |
| 1777211736 | 29.44° C | 11% | 1017 hPa | - | - | - | - |
| 1777210867 | 29.44° C | 11% | 1016.9 hPa | - | - | - | - |
| 1777210835 | 29.44° C | 11% | 1016.9 hPa | - | - | - | - |
| 1777209972 | 30° C | 12% | 1016.8 hPa | - | - | - | - |
| 1777209935 | 30° C | 12% | 1016.8 hPa | - | - | - | - |
| 1777209035 | 30° C | 12% | 1016.8 hPa | - | - | - | - |
* Rain since midnight (hover to see other rain measurements)
** Current wind speed in m/s (hover to see current wind gust speed)